Regional Weather Roundup
Issued by NWS

Home | Current Version | Previous Version | Text Only | Print | Product List | Glossary Off
Versions: 1 2 3 4 5 6 7 8 9 10 11 12 13 14 15 16 17 18 19 20 21 22 23 24 25 26 27 28 29 30 31 32 33 34 35 36 37 38 39 40 41 42 43 44 45 46 47 48 49 50

000
ASUS43 KFSD 222202
RWRSD

WEATHER ROUNDUP FOR SOUTH DAKOTA
NATIONAL WEATHER SERVICE SIOUX FALLS SD
500 PM CDT FRI JUL 22 2016

NOTE: "FAIR" INDICATES FEW OR NO CLOUDS BELOW 12,000 FEET WITH NO
SIGNIFICANT WEATHER AND/OR OBSTRUCTIONS TO VISIBILITY.


SDZ001>005-009-010-012>017-222300-
NORTHWEST AND NORTH CENTRAL SOUTH DAKOTA

CITY           SKY/WX    TMP DP  RH WIND       PRES   REMARKS
BUFFALO          N/A    100  51  19 E18       29.81F HX  97
FAITH            N/A    103  53  19 S22G29    29.90F HX 101
MOBRIDGE       CLOUDY    87  62  43 E21G28    29.94F
$$

SDZ012>016-024>037-041>051-057-063-072>074-222300-
SOUTHWEST AND SOUTH CENTRAL SOUTH DAKOTA

CITY           SKY/WX    TMP DP  RH WIND       PRES   REMARKS
RAPID CTY ARPT CLOUDY    92  58  31 SE14      29.97F
PIERRE         SUNNY     98  66  34 E20G25    29.90F HX 101
CUSTER         CLOUDY    81  44  27 S7G20     30.18F
PHILIP         SUNNY    102  54  20 S17G24    29.90F HX 100
PINE RIDGE     CLOUDY    93  50  23 SE15      30.00F
WINNER         FAIR      97  70  41 E9        29.95F HX 103
$$

SDZ004>011-016>023-039-040-222300-
NORTHEAST SOUTH DAKOTA

CITY           SKY/WX    TMP DP  RH WIND       PRES   REMARKS
ABERDEEN       CLOUDY    79  71  76 N5        29.96R
WATERTOWN      MOSUNNY   88  69  53 NE12      30.06R
BROOKINGS      MOSUNNY   90  77  65 E10       30.02R HX 103
SISSETON         N/A     82  66  58 SE3       29.97F
$$

SDZ017-020-022-023-036>040-048>070-222300-
SOUTHEAST SOUTH DAKOTA

CITY           SKY/WX    TMP DP  RH WIND       PRES   REMARKS
SIOUX FALLS    PTSUNNY   92  79  65 NE15      29.96S HX 108
HURON          CLOUDY    90  74  59 NE18      30.00R HX  99
CHAMBERLAIN    SUNNY     99  76  48 E8G16     29.95R HX 114
MITCHELL       MOSUNNY   94  78  60 E17       29.96R HX 110
YANKTON        PTSUNNY   93  81  66 NE12      29.89F HX 113
$$

ABBREVIATIONS USED IN REMARKS
   TC - TEMPERATURE IN CELSIUS
  WCI - WIND CHILL INDEX
   HX - HEAT INDEX
  VSB - VISIBILITY





USA.gov is the U.S. government's official web portal to all federal, state and local government web resources and services.